TimeCST,TemperatureF,Dew PointF,Humidity,Sea Level PressureIn,VisibilityMPH,Wind Direction,Wind SpeedMPH,Gust SpeedMPH,PrecipitationIn,Events,Conditions,WindDirDegrees,DateUTC
12:52 AM,23.0,21.0,92,29.83,5.0,Calm,Calm,-,N/A,,Clear,0,2013-12-19 06:52:00
1:52 AM,23.0,21.9,96,29.83,7.0,Calm,Calm,-,N/A,,Clear,0,2013-12-19 07:52:00
2:52 AM,23.0,21.0,92,29.83,9.0,Calm,Calm,-,N/A,,Clear,0,2013-12-19 08:52:00
3:52 AM,21.9,21.0,96,29.84,9.0,Calm,Calm,-,N/A,,Clear,0,2013-12-19 09:52:00
4:52 AM,25.0,24.1,96,29.85,7.0,Calm,Calm,-,N/A,,Clear,0,2013-12-19 10:52:00
5:52 AM,25.0,24.1,96,29.86,10.0,Calm,Calm,-,N/A,,Clear,0,2013-12-19 11:52:00
6:52 AM,26.1,25.0,96,29.86,9.0,NNE,3.5,-,N/A,,Clear,30,2013-12-19 12:52:00
7:52 AM,26.1,25.0,96,29.86,7.0,Calm,Calm,-,N/A,,Clear,0,2013-12-19 13:52:00
8:52 AM,30.9,28.0,89,29.89,8.0,NNE,4.6,-,N/A,,Clear,20,2013-12-19 14:52:00
9:52 AM,34.0,30.9,89,29.90,10.0,NE,6.9,-,N/A,,Clear,40,2013-12-19 15:52:00
10:52 AM,35.1,30.9,85,29.91,10.0,NE,11.5,-,N/A,,Clear,50,2013-12-19 16:52:00
11:52 AM,36.0,30.0,79,29.88,10.0,ENE,11.5,-,N/A,,Clear,60,2013-12-19 17:52:00
12:52 PM,36.0,30.0,79,29.85,10.0,NE,10.4,-,N/A,,Clear,50,2013-12-19 18:52:00
1:52 PM,36.0,30.0,79,29.82,10.0,ENE,10.4,18.4,N/A,,Clear,70,2013-12-19 19:52:00
2:52 PM,36.0,30.0,79,29.82,10.0,ENE,9.2,16.1,N/A,,Overcast,70,2013-12-19 20:52:00
3:52 PM,35.1,30.0,82,29.85,10.0,ENE,9.2,-,N/A,,Overcast,60,2013-12-19 21:52:00
4:20 PM,35.6,30.2,81,29.83,9.0,ENE,8.1,-,N/A,,Overcast,70,2013-12-19 22:20:00
4:52 PM,35.1,30.0,82,29.84,8.0,NE,10.4,-,N/A,,Overcast,50,2013-12-19 22:52:00
5:52 PM,34.0,30.9,89,29.83,6.0,ENE,9.2,18.4,N/A,,Overcast,60,2013-12-19 23:52:00
6:14 PM,33.8,30.2,87,29.80,4.0,ENE,11.5,-,N/A,,Overcast,60,2013-12-20 00:14:00
6:52 PM,33.1,30.9,92,29.84,3.0,NE,11.5,-,N/A,,Overcast,50,2013-12-20 00:52:00
7:09 PM,32.0,30.2,93,29.81,2.5,NE,11.5,-,0.00,Rain,Light Rain,50,2013-12-20 01:09:00
7:52 PM,32.0,30.9,96,29.82,2.5,NE,10.4,-,0.01,,Overcast,50,2013-12-20 01:52:00
8:40 PM,33.8,30.2,87,29.78,3.0,ENE,11.5,-,0.02,,Overcast,60,2013-12-20 02:40:00
8:52 PM,33.1,30.9,92,29.81,3.0,NE,9.2,-,0.02,,Overcast,50,2013-12-20 02:52:00
9:48 PM,33.8,30.2,87,29.78,2.5,NE,9.2,-,N/A,,Overcast,50,2013-12-20 03:48:00
9:52 PM,33.1,30.9,92,29.80,2.5,NE,8.1,-,N/A,,Overcast,50,2013-12-20 03:52:00
10:10 PM,33.8,30.2,87,29.78,3.0,NE,9.2,-,0.00,,Overcast,50,2013-12-20 04:10:00
10:50 PM,33.8,32.0,93,29.78,2.5,NE,8.1,-,0.00,,Overcast,50,2013-12-20 04:50:00
10:52 PM,33.1,32.0,96,29.80,2.5,NE,6.9,-,0.00,,Overcast,50,2013-12-20 04:52:00
11:04 PM,33.8,32.0,93,29.77,3.0,NE,8.1,-,N/A,,Overcast,50,2013-12-20 05:04:00
11:52 PM,33.1,32.0,96,29.80,3.0,NE,5.8,-,N/A,,Overcast,50,2013-12-20 05:52:00